#datetime,building,power
2023-09-19T00:00:00,mfh,26.79
2023-09-19T00:01:00,mfh,26.77
2023-09-19T00:02:00,mfh,27.32
2023-09-19T00:03:00,mfh,27.43
2023-09-19T00:04:00,mfh,27.43
2023-09-19T00:05:00,mfh,27.37
2023-09-19T00:06:00,mfh,28.09
2023-09-19T00:07:00,mfh,26.81
2023-09-19T00:08:00,mfh,26.70
2023-09-19T00:09:00,mfh,26.90
2023-09-19T00:10:00,mfh,27.48
2023-09-19T00:11:00,mfh,27.48
2023-09-19T00:12:00,mfh,27.74
2023-09-19T00:13:00,mfh,27.54
2023-09-19T00:14:00,mfh,27.59
2023-09-19T00:15:00,mfh,27.62
2023-09-19T00:16:00,mfh,27.13
2023-09-19T00:17:00,mfh,26.94
2023-09-19T00:18:00,mfh,26.79
2023-09-19T00:19:00,mfh,26.86
2023-09-19T00:20:00,mfh,27.59
2023-09-19T00:21:00,mfh,27.13
2023-09-19T00:22:00,mfh,26.36
2023-09-19T00:23:00,mfh,26.12
2023-09-19T00:24:00,mfh,25.58
2023-09-19T00:25:00,mfh,25.80
2023-09-19T00:26:00,mfh,25.70
2023-09-19T00:27:00,mfh,25.57
2023-09-19T00:28:00,mfh,26.96
2023-09-19T00:29:00,mfh,26.84
2023-09-19T00:30:00,mfh,26.14
2023-09-19T00:31:00,mfh,26.32
2023-09-19T00:32:00,mfh,27.03
2023-09-19T00:33:00,mfh,25.97
2023-09-19T00:34:00,mfh,26.65
2023-09-19T00:35:00,mfh,26.03
2023-09-19T00:36:00,mfh,25.41
2023-09-19T00:37:00,mfh,26.37
2023-09-19T00:38:00,mfh,26.28
2023-09-19T00:39:00,mfh,26.22
2023-09-19T00:40:00,mfh,26.12
2023-09-19T00:41:00,mfh,26.38
2023-09-19T00:42:00,mfh,25.99
2023-09-19T00:43:00,mfh,26.33
2023-09-19T00:44:00,mfh,26.02
2023-09-19T00:45:00,mfh,26.61
2023-09-19T00:46:00,mfh,26.63
2023-09-19T00:47:00,mfh,26.56
2023-09-19T00:48:00,mfh,26.53
2023-09-19T00:49:00,mfh,26.50
2023-09-19T00:50:00,mfh,26.58
2023-09-19T00:51:00,mfh,26.00
2023-09-19T00:52:00,mfh,25.88
2023-09-19T00:53:00,mfh,25.85
2023-09-19T00:54:00,mfh,26.14
2023-09-19T00:55:00,mfh,26.59
2023-09-19T00:56:00,mfh,26.49
2023-09-19T00:57:00,mfh,26.50
2023-09-19T00:58:00,mfh,26.57
2023-09-19T00:59:00,mfh,25.93
2023-09-19T01:00:00,mfh,25.93
2023-09-19T01:01:00,mfh,25.75
2023-09-19T01:02:00,mfh,25.72
2023-09-19T01:03:00,mfh,26.51
2023-09-19T01:04:00,mfh,26.43
2023-09-19T01:05:00,mfh,26.74
2023-09-19T01:06:00,mfh,26.25
2023-09-19T01:07:00,mfh,26.29
2023-09-19T01:08:00,mfh,25.51
2023-09-19T01:09:00,mfh,25.57
2023-09-19T01:10:00,mfh,25.47
2023-09-19T01:11:00,mfh,25.57
2023-09-19T01:12:00,mfh,26.18
2023-09-19T01:13:00,mfh,26.29
2023-09-19T01:14:00,mfh,26.37
2023-09-19T01:15:00,mfh,26.37
2023-09-19T01:16:00,mfh,26.42
2023-09-19T01:17:00,mfh,25.77
2023-09-19T01:18:00,mfh,25.87
2023-09-19T01:19:00,mfh,25.63
2023-09-19T01:20:00,mfh,27.57
2023-09-19T01:21:00,mfh,26.31
2023-09-19T01:22:00,mfh,26.34
2023-09-19T01:23:00,mfh,26.22
2023-09-19T01:24:00,mfh,26.23
2023-09-19T01:25:00,mfh,26.26
2023-09-19T01:26:00,mfh,25.60
2023-09-19T01:27:00,mfh,25.53
2023-09-19T01:28:00,mfh,25.79
2023-09-19T01:29:00,mfh,26.95
2023-09-19T01:30:00,mfh,26.55
2023-09-19T01:31:00,mfh,26.62
2023-09-19T01:32:00,mfh,26.32
2023-09-19T01:33:00,mfh,26.25
2023-09-19T01:34:00,mfh,26.24
2023-09-19T01:35:00,mfh,26.09
2023-09-19T01:36:00,mfh,25.70
2023-09-19T01:37:00,mfh,25.50
2023-09-19T01:38:00,mfh,26.24
2023-09-19T01:39:00,mfh,26.58
2023-09-19T01:40:00,mfh,26.35
2023-09-19T01:41:00,mfh,26.45
2023-09-19T01:42:00,mfh,26.41
2023-09-19T01:43:00,mfh,26.37
2023-09-19T01:44:00,mfh,25.66
2023-09-19T01:45:00,mfh,25.66
2023-09-19T01:46:00,mfh,25.70
2023-09-19T01:47:00,mfh,26.40
2023-09-19T01:48:00,mfh,26.53
2023-09-19T01:49:00,mfh,26.46
2023-09-19T01:50:00,mfh,26.44
2023-09-19T01:51:00,mfh,26.64
2023-09-19T01:52:00,mfh,26.71
2023-09-19T01:53:00,mfh,25.90
2023-09-19T01:54:00,mfh,25.90
2023-09-19T01:55:00,mfh,25.93
2023-09-19T01:56:00,mfh,26.67
2023-09-19T01:57:00,mfh,27.32
2023-09-19T01:58:00,mfh,27.19
2023-09-19T01:59:00,mfh,27.19
2023-09-19T02:00:00,mfh,27.23
2023-09-19T02:01:00,mfh,26.50
2023-09-19T02:02:00,mfh,26.28
2023-09-19T02:03:00,mfh,25.85
2023-09-19T02:04:00,mfh,25.76
2023-09-19T02:05:00,mfh,26.33
2023-09-19T02:06:00,mfh,26.25
2023-09-19T02:07:00,mfh,26.17
2023-09-19T02:08:00,mfh,26.14
2023-09-19T02:09:00,mfh,26.04
2023-09-19T02:10:00,mfh,25.38
2023-09-19T02:11:00,mfh,25.33
2023-09-19T02:12:00,mfh,25.44
2023-09-19T02:13:00,mfh,26.20
2023-09-19T02:14:00,mfh,26.97
2023-09-19T02:15:00,mfh,26.22
2023-09-19T02:16:00,mfh,26.18
2023-09-19T02:17:00,mfh,26.09
2023-09-19T02:18:00,mfh,26.15
2023-09-19T02:19:00,mfh,25.71
2023-09-19T02:20:00,mfh,25.66
2023-09-19T02:21:00,mfh,25.80
2023-09-19T02:22:00,mfh,26.31
2023-09-19T02:23:00,mfh,26.47
2023-09-19T02:24:00,mfh,26.24
2023-09-19T02:25:00,mfh,26.47
2023-09-19T02:26:00,mfh,26.41
2023-09-19T02:27:00,mfh,26.63
2023-09-19T02:28:00,mfh,25.85
2023-09-19T02:29:00,mfh,25.81
2023-09-19T02:30:00,mfh,25.77
2023-09-19T02:31:00,mfh,25.40
2023-09-19T02:32:00,mfh,25.48
2023-09-19T02:33:00,mfh,25.43
2023-09-19T02:34:00,mfh,25.37
2023-09-19T02:35:00,mfh,25.27
2023-09-19T02:36:00,mfh,25.46
2023-09-19T02:37:00,mfh,25.64
2023-09-19T02:38:00,mfh,25.61
2023-09-19T02:39:00,mfh,26.36
2023-09-19T02:40:00,mfh,26.34
2023-09-19T02:41:00,mfh,26.31
2023-09-19T02:42:00,mfh,26.33
2023-09-19T02:43:00,mfh,26.40
2023-09-19T02:44:00,mfh,25.76
2023-09-19T02:45:00,mfh,25.66
2023-09-19T02:46:00,mfh,25.68
2023-09-19T02:47:00,mfh,25.69
2023-09-19T02:48:00,mfh,26.32
2023-09-19T02:49:00,mfh,26.32
2023-09-19T02:50:00,mfh,26.18
2023-09-19T02:51:00,mfh,26.18
2023-09-19T02:52:00,mfh,26.23
2023-09-19T02:53:00,mfh,26.20
2023-09-19T02:54:00,mfh,26.18
2023-09-19T02:55:00,mfh,25.54
2023-09-19T02:56:00,mfh,24.63
2023-09-19T02:57:00,mfh,26.36
2023-09-19T02:58:00,mfh,25.38
2023-09-19T02:59:00,mfh,25.53
2023-09-19T03:00:00,mfh,25.37
2023-09-19T03:01:00,mfh,26.52
2023-09-19T03:02:00,mfh,26.36
2023-09-19T03:03:00,mfh,26.41
2023-09-19T03:04:00,mfh,26.86
2023-09-19T03:05:00,mfh,26.45
2023-09-19T03:06:00,mfh,27.33
2023-09-19T03:07:00,mfh,26.27
2023-09-19T03:08:00,mfh,26.33
2023-09-19T03:09:00,mfh,26.71
2023-09-19T03:10:00,mfh,25.99
2023-09-19T03:11:00,mfh,25.81
2023-09-19T03:12:00,mfh,25.64
2023-09-19T03:13:00,mfh,25.88
2023-09-19T03:14:00,mfh,25.66
2023-09-19T03:15:00,mfh,26.21
2023-09-19T03:16:00,mfh,26.23
2023-09-19T03:17:00,mfh,26.62
2023-09-19T03:18:00,mfh,25.13
2023-09-19T03:19:00,mfh,25.10
2023-09-19T03:20:00,mfh,24.87
2023-09-19T03:21:00,mfh,24.58
2023-09-19T03:22:00,mfh,25.50
2023-09-19T03:23:00,mfh,26.10
2023-09-19T03:24:00,mfh,26.24
2023-09-19T03:25:00,mfh,26.81
2023-09-19T03:26:00,mfh,26.28
2023-09-19T03:27:00,mfh,27.17
2023-09-19T03:28:00,mfh,26.15
2023-09-19T03:29:00,mfh,25.77
2023-09-19T03:30:00,mfh,25.70
2023-09-19T03:31:00,mfh,25.69
2023-09-19T03:32:00,mfh,26.17
2023-09-19T03:33:00,mfh,26.49
2023-09-19T03:34:00,mfh,26.41
2023-09-19T03:35:00,mfh,26.20
2023-09-19T03:36:00,mfh,26.27
2023-09-19T03:37:00,mfh,25.61
2023-09-19T03:38:00,mfh,25.56
2023-09-19T03:39:00,mfh,24.55
2023-09-19T03:40:00,mfh,24.43
2023-09-19T03:41:00,mfh,25.13
2023-09-19T03:42:00,mfh,26.15
2023-09-19T03:43:00,mfh,25.55
2023-09-19T03:44:00,mfh,26.22
2023-09-19T03:45:00,mfh,26.21
2023-09-19T03:46:00,mfh,25.53
2023-09-19T03:47:00,mfh,25.48
2023-09-19T03:48:00,mfh,25.55
2023-09-19T03:49:00,mfh,26.14
2023-09-19T03:50:00,mfh,27.10
2023-09-19T03:51:00,mfh,26.18
2023-09-19T03:52:00,mfh,26.85
2023-09-19T03:53:00,mfh,27.69
2023-09-19T03:54:00,mfh,27.86
2023-09-19T03:55:00,mfh,27.22
2023-09-19T03:56:00,mfh,28.16
2023-09-19T03:57:00,mfh,25.87
2023-09-19T03:58:00,mfh,24.70
2023-09-19T03:59:00,mfh,25.33
2023-09-19T04:00:00,mfh,25.37
2023-09-19T04:01:00,mfh,25.44
2023-09-19T04:02:00,mfh,26.23
2023-09-19T04:03:00,mfh,25.56
2023-09-19T04:04:00,mfh,25.36
2023-09-19T04:05:00,mfh,25.45
2023-09-19T04:06:00,mfh,25.74
2023-09-19T04:07:00,mfh,26.53
2023-09-19T04:08:00,mfh,26.63
2023-09-19T04:09:00,mfh,26.36
2023-09-19T04:10:00,mfh,26.37
2023-09-19T04:11:00,mfh,26.44
2023-09-19T04:12:00,mfh,33.96
2023-09-19T04:13:00,mfh,38.41
2023-09-19T04:14:00,mfh,38.42
2023-09-19T04:15:00,mfh,37.36
2023-09-19T04:16:00,mfh,37.97
2023-09-19T04:17:00,mfh,37.74
2023-09-19T04:18:00,mfh,38.00
2023-09-19T04:19:00,mfh,37.83
2023-09-19T04:20:00,mfh,38.47
2023-09-19T04:21:00,mfh,37.88
2023-09-19T04:22:00,mfh,37.64
2023-09-19T04:23:00,mfh,37.97
2023-09-19T04:24:00,mfh,38.24
2023-09-19T04:25:00,mfh,39.20
2023-09-19T04:26:00,mfh,34.89
2023-09-19T04:27:00,mfh,35.08
2023-09-19T04:28:00,mfh,35.12
2023-09-19T04:29:00,mfh,35.99
2023-09-19T04:30:00,mfh,26.75
2023-09-19T04:31:00,mfh,27.31
2023-09-19T04:32:00,mfh,25.58
2023-09-19T04:33:00,mfh,24.92
2023-09-19T04:34:00,mfh,24.88
2023-09-19T04:35:00,mfh,25.89
2023-09-19T04:36:00,mfh,25.99
2023-09-19T04:37:00,mfh,26.11
2023-09-19T04:38:00,mfh,26.39
2023-09-19T04:39:00,mfh,26.03
2023-09-19T04:40:00,mfh,26.32
2023-09-19T04:41:00,mfh,26.60
2023-09-19T04:42:00,mfh,27.12
2023-09-19T04:43:00,mfh,26.97
2023-09-19T04:44:00,mfh,27.91
2023-09-19T04:45:00,mfh,27.49
2023-09-19T04:46:00,mfh,27.58
2023-09-19T04:47:00,mfh,26.04
2023-09-19T04:48:00,mfh,25.68
2023-09-19T04:49:00,mfh,25.71
2023-09-19T04:50:00,mfh,25.58
2023-09-19T04:51:00,mfh,26.56
2023-09-19T04:52:00,mfh,27.22
2023-09-19T04:53:00,mfh,28.18
2023-09-19T04:54:00,mfh,27.40
2023-09-19T04:55:00,mfh,27.40
2023-09-19T04:56:00,mfh,26.93
2023-09-19T04:57:00,mfh,26.76
2023-09-19T04:58:00,mfh,26.73
2023-09-19T04:59:00,mfh,27.72
2023-09-19T05:00:00,mfh,28.28
2023-09-19T05:01:00,mfh,44.16
2023-09-19T05:02:00,mfh,48.10
2023-09-19T05:03:00,mfh,48.32
2023-09-19T05:04:00,mfh,48.26
2023-09-19T05:05:00,mfh,47.61
2023-09-19T05:06:00,mfh,48.59
2023-09-19T05:07:00,mfh,48.95
2023-09-19T05:08:00,mfh,49.86
2023-09-19T05:09:00,mfh,50.68
2023-09-19T05:10:00,mfh,50.70
2023-09-19T05:11:00,mfh,49.97
2023-09-19T05:12:00,mfh,58.91
2023-09-19T05:13:00,mfh,59.74
2023-09-19T05:14:00,mfh,58.90
2023-09-19T05:15:00,mfh,59.17
2023-09-19T05:16:00,mfh,57.40
2023-09-19T05:17:00,mfh,55.63
2023-09-19T05:18:00,mfh,55.61
2023-09-19T05:19:00,mfh,55.76
2023-09-19T05:20:00,mfh,56.45
2023-09-19T05:21:00,mfh,57.48
2023-09-19T05:22:00,mfh,56.60
2023-09-19T05:23:00,mfh,57.55
2023-09-19T05:24:00,mfh,57.59
2023-09-19T05:25:00,mfh,57.49
2023-09-19T05:26:00,mfh,59.03
2023-09-19T05:27:00,mfh,58.45
2023-09-19T05:28:00,mfh,58.55
2023-09-19T05:29:00,mfh,58.13
2023-09-19T05:30:00,mfh,57.31
2023-09-19T05:31:00,mfh,57.87
2023-09-19T05:32:00,mfh,57.59
2023-09-19T05:33:00,mfh,57.59
2023-09-19T05:34:00,mfh,58.70
2023-09-19T05:35:00,mfh,58.42
2023-09-19T05:36:00,mfh,59.18
2023-09-19T05:37:00,mfh,58.65
2023-09-19T05:38:00,mfh,59.95
2023-09-19T05:39:00,mfh,59.21
2023-09-19T05:40:00,mfh,57.55
2023-09-19T05:41:00,mfh,57.66
2023-09-19T05:42:00,mfh,56.34
2023-09-19T05:43:00,mfh,57.44
2023-09-19T05:44:00,mfh,57.11
2023-09-19T05:45:00,mfh,57.07
2023-09-19T05:46:00,mfh,57.21
2023-09-19T05:47:00,mfh,57.21
2023-09-19T05:48:00,mfh,57.20
2023-09-19T05:49:00,mfh,57.16
2023-09-19T05:50:00,mfh,57.07
2023-09-19T05:51:00,mfh,57.01
2023-09-19T05:52:00,mfh,58.36
2023-09-19T05:53:00,mfh,56.76
2023-09-19T05:54:00,mfh,57.24
2023-09-19T05:55:00,mfh,56.64
2023-09-19T05:56:00,mfh,57.01
2023-09-19T05:57:00,mfh,56.18
2023-09-19T05:58:00,mfh,56.41
2023-09-19T05:59:00,mfh,56.12
2023-09-19T06:00:00,mfh,55.89
2023-09-19T06:01:00,mfh,57.24
2023-09-19T06:02:00,mfh,57.30
2023-09-19T06:03:00,mfh,56.75
2023-09-19T06:04:00,mfh,57.73
2023-09-19T06:05:00,mfh,57.43
2023-09-19T06:06:00,mfh,56.97
2023-09-19T06:07:00,mfh,56.94
2023-09-19T06:08:00,mfh,57.70
2023-09-19T06:09:00,mfh,57.41
2023-09-19T06:10:00,mfh,58.93
2023-09-19T06:11:00,mfh,59.04
2023-09-19T06:12:00,mfh,58.93
2023-09-19T06:13:00,mfh,60.08
2023-09-19T06:14:00,mfh,58.34
2023-09-19T06:15:00,mfh,58.12
2023-09-19T06:16:00,mfh,57.89
2023-09-19T06:17:00,mfh,57.78
2023-09-19T06:18:00,mfh,57.84
2023-09-19T06:19:00,mfh,58.35
2023-09-19T06:20:00,mfh,58.64
2023-09-19T06:21:00,mfh,58.84
2023-09-19T06:22:00,mfh,58.40
2023-09-19T06:23:00,mfh,58.70
2023-09-19T06:24:00,mfh,58.16
2023-09-19T06:25:00,mfh,58.32
2023-09-19T06:26:00,mfh,58.46
2023-09-19T06:27:00,mfh,58.25
2023-09-19T06:28:00,mfh,58.97
2023-09-19T06:29:00,mfh,58.33
2023-09-19T06:30:00,mfh,58.97
2023-09-19T06:31:00,mfh,59.54
2023-09-19T06:32:00,mfh,59.42
2023-09-19T06:33:00,mfh,59.75
2023-09-19T06:34:00,mfh,59.50
2023-09-19T06:35:00,mfh,60.00
2023-09-19T06:36:00,mfh,60.57
2023-09-19T06:37:00,mfh,59.85
2023-09-19T06:38:00,mfh,59.72
2023-09-19T06:39:00,mfh,59.55
2023-09-19T06:40:00,mfh,58.99
2023-09-19T06:41:00,mfh,59.14
2023-09-19T06:42:00,mfh,59.49
2023-09-19T06:43:00,mfh,60.05
2023-09-19T06:44:00,mfh,59.56
2023-09-19T06:45:00,mfh,59.89
2023-09-19T06:46:00,mfh,60.09
2023-09-19T06:47:00,mfh,60.59
2023-09-19T06:48:00,mfh,60.08
2023-09-19T06:49:00,mfh,59.88
2023-09-19T06:50:00,mfh,59.83
2023-09-19T06:51:00,mfh,59.54
2023-09-19T06:52:00,mfh,58.81
2023-09-19T06:53:00,mfh,59.06
2023-09-19T06:54:00,mfh,59.17
2023-09-19T06:55:00,mfh,59.38
2023-09-19T06:56:00,mfh,59.36
2023-09-19T06:57:00,mfh,59.24
2023-09-19T06:58:00,mfh,59.54
2023-09-19T06:59:00,mfh,59.34
2023-09-19T07:00:00,mfh,59.07
2023-09-19T07:01:00,mfh,58.97
2023-09-19T07:02:00,mfh,58.92
2023-09-19T07:03:00,mfh,59.29
2023-09-19T07:04:00,mfh,59.61
2023-09-19T07:05:00,mfh,59.49
2023-09-19T07:06:00,mfh,59.54
2023-09-19T07:07:00,mfh,63.92
2023-09-19T07:08:00,mfh,63.40
2023-09-19T07:09:00,mfh,63.24
2023-09-19T07:10:00,mfh,63.42
2023-09-19T07:11:00,mfh,64.05
2023-09-19T07:12:00,mfh,64.13
2023-09-19T07:13:00,mfh,64.32
2023-09-19T07:14:00,mfh,64.37
2023-09-19T07:15:00,mfh,64.92
2023-09-19T07:16:00,mfh,64.26
2023-09-19T07:17:00,mfh,63.57
2023-09-19T07:18:00,mfh,63.89
2023-09-19T07:19:00,mfh,64.62
2023-09-19T07:20:00,mfh,64.19
2023-09-19T07:21:00,mfh,65.33
2023-09-19T07:22:00,mfh,61.63
2023-09-19T07:23:00,mfh,60.90
2023-09-19T07:24:00,mfh,60.16
2023-09-19T07:25:00,mfh,59.65
2023-09-19T07:26:00,mfh,59.65
2023-09-19T07:27:00,mfh,60.62
2023-09-19T07:28:00,mfh,60.47
2023-09-19T07:29:00,mfh,61.08
2023-09-19T07:30:00,mfh,61.41
2023-09-19T07:31:00,mfh,60.59
2023-09-19T07:32:00,mfh,60.65
2023-09-19T07:33:00,mfh,60.99
2023-09-19T07:34:00,mfh,60.06
2023-09-19T07:35:00,mfh,61.11
2023-09-19T07:36:00,mfh,59.95
2023-09-19T07:37:00,mfh,60.75
2023-09-19T07:38:00,mfh,60.50
2023-09-19T07:39:00,mfh,60.37
2023-09-19T07:40:00,mfh,60.42
2023-09-19T07:41:00,mfh,60.44
2023-09-19T07:42:00,mfh,59.79
2023-09-19T07:43:00,mfh,59.40
2023-09-19T07:44:00,mfh,59.30
2023-09-19T07:45:00,mfh,59.20
2023-09-19T07:46:00,mfh,59.98
2023-09-19T07:47:00,mfh,59.87
2023-09-19T07:48:00,mfh,59.94
2023-09-19T07:49:00,mfh,64.42
2023-09-19T07:50:00,mfh,65.10
2023-09-19T07:51:00,mfh,64.42
2023-09-19T07:52:00,mfh,63.85
2023-09-19T07:53:00,mfh,63.99
2023-09-19T07:54:00,mfh,64.33
2023-09-19T07:55:00,mfh,64.21
2023-09-19T07:56:00,mfh,63.98
2023-09-19T07:57:00,mfh,64.11
2023-09-19T07:58:00,mfh,64.17
2023-09-19T07:59:00,mfh,64.64
2023-09-19T08:00:00,mfh,64.04
2023-09-19T08:01:00,mfh,63.74
2023-09-19T08:02:00,mfh,63.90
2023-09-19T08:03:00,mfh,63.52
2023-09-19T08:04:00,mfh,58.67
2023-09-19T08:05:00,mfh,58.98
2023-09-19T08:06:00,mfh,59.21
2023-09-19T08:07:00,mfh,59.30
2023-09-19T08:08:00,mfh,64.62
2023-09-19T08:09:00,mfh,63.48
2023-09-19T08:10:00,mfh,63.21
2023-09-19T08:11:00,mfh,71.57
2023-09-19T08:12:00,mfh,71.59
2023-09-19T08:13:00,mfh,72.00
2023-09-19T08:14:00,mfh,72.02
2023-09-19T08:15:00,mfh,72.48
2023-09-19T08:16:00,mfh,73.07
2023-09-19T08:17:00,mfh,72.63
2023-09-19T08:18:00,mfh,72.20
2023-09-19T08:19:00,mfh,72.88
2023-09-19T08:20:00,mfh,73.71
2023-09-19T08:21:00,mfh,73.92
2023-09-19T08:22:00,mfh,73.53
2023-09-19T08:23:00,mfh,73.05
2023-09-19T08:24:00,mfh,73.13
2023-09-19T08:25:00,mfh,73.66
2023-09-19T08:26:00,mfh,73.36
2023-09-19T08:27:00,mfh,73.55
2023-09-19T08:28:00,mfh,73.32
2023-09-19T08:29:00,mfh,73.36
2023-09-19T08:30:00,mfh,72.74
2023-09-19T08:31:00,mfh,73.42
2023-09-19T08:32:00,mfh,73.17
2023-09-19T08:33:00,mfh,72.17
2023-09-19T08:34:00,mfh,72.12
2023-09-19T08:35:00,mfh,72.98
2023-09-19T08:36:00,mfh,71.54
2023-09-19T08:37:00,mfh,71.66
2023-09-19T08:38:00,mfh,72.98
2023-09-19T08:39:00,mfh,73.36
2023-09-19T08:40:00,mfh,73.16
2023-09-19T08:41:00,mfh,73.68
2023-09-19T08:42:00,mfh,73.35
2023-09-19T08:43:00,mfh,73.41
2023-09-19T08:44:00,mfh,73.45
2023-09-19T08:45:00,mfh,73.22
2023-09-19T08:46:00,mfh,73.00
2023-09-19T08:47:00,mfh,73.31
2023-09-19T08:48:00,mfh,70.17
2023-09-19T08:49:00,mfh,70.33
2023-09-19T08:50:00,mfh,70.67
2023-09-19T08:51:00,mfh,70.53
2023-09-19T08:52:00,mfh,62.97
2023-09-19T08:53:00,mfh,61.64
2023-09-19T08:54:00,mfh,61.80
2023-09-19T08:55:00,mfh,61.52
2023-09-19T08:56:00,mfh,61.82
2023-09-19T08:57:00,mfh,62.71
2023-09-19T08:58:00,mfh,63.05
2023-09-19T08:59:00,mfh,63.05
2023-09-19T09:00:00,mfh,63.75
2023-09-19T09:01:00,mfh,66.77
2023-09-19T09:02:00,mfh,66.31
2023-09-19T09:03:00,mfh,67.02
2023-09-19T09:04:00,mfh,65.52
2023-09-19T09:05:00,mfh,65.81
2023-09-19T09:06:00,mfh,65.72
2023-09-19T09:07:00,mfh,66.59
2023-09-19T09:08:00,mfh,67.14
2023-09-19T09:09:00,mfh,66.84
2023-09-19T09:10:00,mfh,67.17
2023-09-19T09:11:00,mfh,66.52
2023-09-19T09:12:00,mfh,66.38
2023-09-19T09:13:00,mfh,66.27
2023-09-19T09:14:00,mfh,66.49
2023-09-19T09:15:00,mfh,68.29
2023-09-19T09:16:00,mfh,65.97
2023-09-19T09:17:00,mfh,65.82
2023-09-19T09:18:00,mfh,65.80
2023-09-19T09:19:00,mfh,65.67
2023-09-19T09:20:00,mfh,66.11
2023-09-19T09:21:00,mfh,61.99
2023-09-19T09:22:00,mfh,60.59
2023-09-19T09:23:00,mfh,60.42
2023-09-19T09:24:00,mfh,61.23
2023-09-19T09:25:00,mfh,61.54
2023-09-19T09:26:00,mfh,63.15
2023-09-19T09:27:00,mfh,62.32
2023-09-19T09:28:00,mfh,74.68
2023-09-19T09:29:00,mfh,75.37
2023-09-19T09:30:00,mfh,74.06
2023-09-19T09:31:00,mfh,74.09
2023-09-19T09:32:00,mfh,74.59
2023-09-19T09:33:00,mfh,74.90
2023-09-19T09:34:00,mfh,73.97
2023-09-19T09:35:00,mfh,74.33
2023-09-19T09:36:00,mfh,75.37
2023-09-19T09:37:00,mfh,75.19
2023-09-19T09:38:00,mfh,73.69
2023-09-19T09:39:00,mfh,73.76
2023-09-19T09:40:00,mfh,74.37
2023-09-19T09:41:00,mfh,74.16
2023-09-19T09:42:00,mfh,74.73
2023-09-19T09:43:00,mfh,74.60
2023-09-19T09:44:00,mfh,77.63
2023-09-19T09:45:00,mfh,77.58
2023-09-19T09:46:00,mfh,77.93
2023-09-19T09:47:00,mfh,77.48
2023-09-19T09:48:00,mfh,76.62
2023-09-19T09:49:00,mfh,76.71
2023-09-19T09:50:00,mfh,76.71
2023-09-19T09:51:00,mfh,77.22
2023-09-19T09:52:00,mfh,77.38
2023-09-19T09:53:00,mfh,77.22
2023-09-19T09:54:00,mfh,77.49
2023-09-19T09:55:00,mfh,77.34
2023-09-19T09:56:00,mfh,73.95
2023-09-19T09:57:00,mfh,73.99
2023-09-19T09:58:00,mfh,73.69
2023-09-19T09:59:00,mfh,73.93
2023-09-19T10:00:00,mfh,77.72
2023-09-19T10:01:00,mfh,78.12
2023-09-19T10:02:00,mfh,77.37
2023-09-19T10:03:00,mfh,73.43
2023-09-19T10:04:00,mfh,74.67
2023-09-19T10:05:00,mfh,73.05
2023-09-19T10:06:00,mfh,74.18
2023-09-19T10:07:00,mfh,73.05
2023-09-19T10:08:00,mfh,72.81
2023-09-19T10:09:00,mfh,74.00
2023-09-19T10:10:00,mfh,73.74
2023-09-19T10:11:00,mfh,75.38
2023-09-19T10:12:00,mfh,74.93
2023-09-19T10:13:00,mfh,74.52
2023-09-19T10:14:00,mfh,73.95
2023-09-19T10:15:00,mfh,75.45
2023-09-19T10:16:00,mfh,73.48
2023-09-19T10:17:00,mfh,73.16
2023-09-19T10:18:00,mfh,73.11
2023-09-19T10:19:00,mfh,74.41
2023-09-19T10:20:00,mfh,73.16
2023-09-19T10:21:00,mfh,74.09
2023-09-19T10:22:00,mfh,72.71
2023-09-19T10:23:00,mfh,73.12
2023-09-19T10:24:00,mfh,73.12
2023-09-19T10:25:00,mfh,74.29
2023-09-19T10:26:00,mfh,70.40
2023-09-19T10:27:00,mfh,70.95
2023-09-19T10:28:00,mfh,70.07
2023-09-19T10:29:00,mfh,70.26
2023-09-19T10:30:00,mfh,69.52
2023-09-19T10:31:00,mfh,68.93
2023-09-19T10:32:00,mfh,68.73
2023-09-19T10:33:00,mfh,68.06
2023-09-19T10:34:00,mfh,68.15
2023-09-19T10:35:00,mfh,68.79
2023-09-19T10:36:00,mfh,69.75
2023-09-19T10:37:00,mfh,69.59
2023-09-19T10:38:00,mfh,68.65
2023-09-19T10:39:00,mfh,68.51
2023-09-19T10:40:00,mfh,68.09
2023-09-19T10:41:00,mfh,71.72
2023-09-19T10:42:00,mfh,74.93
2023-09-19T10:43:00,mfh,75.38
2023-09-19T10:44:00,mfh,75.33
2023-09-19T10:45:00,mfh,75.19
2023-09-19T10:46:00,mfh,75.08
2023-09-19T10:47:00,mfh,75.87
2023-09-19T10:48:00,mfh,75.56
2023-09-19T10:49:00,mfh,74.34
2023-09-19T10:50:00,mfh,75.11
2023-09-19T10:51:00,mfh,75.23
2023-09-19T10:52:00,mfh,76.11
2023-09-19T10:53:00,mfh,76.41
2023-09-19T10:54:00,mfh,77.64
2023-09-19T10:55:00,mfh,76.83
2023-09-19T10:56:00,mfh,76.53
2023-09-19T10:57:00,mfh,77.26
2023-09-19T10:58:00,mfh,76.77
2023-09-19T10:59:00,mfh,76.15
2023-09-19T11:00:00,mfh,75.35
2023-09-19T11:01:00,mfh,76.47
2023-09-19T11:02:00,mfh,76.36
2023-09-19T11:03:00,mfh,76.01
2023-09-19T11:04:00,mfh,76.53
2023-09-19T11:05:00,mfh,76.03
2023-09-19T11:06:00,mfh,76.72
2023-09-19T11:07:00,mfh,75.85
2023-09-19T11:08:00,mfh,76.39
2023-09-19T11:09:00,mfh,76.71
2023-09-19T11:10:00,mfh,74.06
2023-09-19T11:11:00,mfh,69.98
2023-09-19T11:12:00,mfh,70.77
2023-09-19T11:13:00,mfh,67.84
2023-09-19T11:14:00,mfh,67.75
2023-09-19T11:15:00,mfh,77.16
2023-09-19T11:16:00,mfh,76.83
2023-09-19T11:17:00,mfh,77.54
2023-09-19T11:18:00,mfh,76.35
2023-09-19T11:19:00,mfh,78.75
2023-09-19T11:20:00,mfh,78.39
2023-09-19T11:21:00,mfh,76.81
2023-09-19T11:22:00,mfh,77.31
2023-09-19T11:23:00,mfh,76.96
2023-09-19T11:24:00,mfh,77.59
2023-09-19T11:25:00,mfh,77.20
2023-09-19T11:26:00,mfh,77.27
2023-09-19T11:27:00,mfh,77.82
2023-09-19T11:28:00,mfh,77.15
2023-09-19T11:29:00,mfh,78.34
2023-09-19T11:30:00,mfh,77.79
2023-09-19T11:31:00,mfh,77.90
2023-09-19T11:32:00,mfh,77.54
2023-09-19T11:33:00,mfh,77.28
2023-09-19T11:34:00,mfh,77.29
2023-09-19T11:35:00,mfh,77.92
2023-09-19T11:36:00,mfh,77.91
2023-09-19T11:37:00,mfh,78.27
2023-09-19T11:38:00,mfh,78.51
2023-09-19T11:39:00,mfh,79.38
2023-09-19T11:40:00,mfh,78.54
2023-09-19T11:41:00,mfh,78.43
2023-09-19T11:42:00,mfh,78.33
2023-09-19T11:43:00,mfh,77.53
2023-09-19T11:44:00,mfh,77.02
2023-09-19T11:45:00,mfh,77.89
2023-09-19T11:46:00,mfh,78.98
2023-09-19T11:47:00,mfh,78.15
2023-09-19T11:48:00,mfh,77.57
2023-09-19T11:49:00,mfh,77.47
2023-09-19T11:50:00,mfh,78.20
2023-09-19T11:51:00,mfh,77.14
2023-09-19T11:52:00,mfh,76.96
2023-09-19T11:53:00,mfh,77.62
2023-09-19T11:54:00,mfh,77.19
2023-09-19T11:55:00,mfh,77.90
2023-09-19T11:56:00,mfh,77.48
2023-09-19T11:57:00,mfh,77.30
2023-09-19T11:58:00,mfh,77.92
2023-09-19T11:59:00,mfh,77.26
2023-09-19T12:00:00,mfh,77.51
2023-09-19T12:01:00,mfh,78.58
2023-09-19T12:02:00,mfh,78.17
2023-09-19T12:03:00,mfh,78.69
2023-09-19T12:04:00,mfh,78.23
2023-09-19T12:05:00,mfh,77.04
2023-09-19T12:06:00,mfh,77.02
2023-09-19T12:07:00,mfh,76.76
2023-09-19T12:08:00,mfh,76.59
2023-09-19T12:09:00,mfh,75.82
2023-09-19T12:10:00,mfh,76.40
2023-09-19T12:11:00,mfh,77.93
2023-09-19T12:12:00,mfh,78.39
2023-09-19T12:13:00,mfh,77.99
2023-09-19T12:14:00,mfh,77.88
2023-09-19T12:15:00,mfh,76.24
2023-09-19T12:16:00,mfh,76.23
2023-09-19T12:17:00,mfh,77.22
2023-09-19T12:18:00,mfh,75.36
2023-09-19T12:19:00,mfh,75.43
2023-09-19T12:20:00,mfh,75.57
2023-09-19T12:21:00,mfh,76.42
2023-09-19T12:22:00,mfh,77.24
2023-09-19T12:23:00,mfh,76.73
2023-09-19T12:24:00,mfh,77.98
2023-09-19T12:25:00,mfh,77.44
2023-09-19T12:26:00,mfh,77.61
2023-09-19T12:27:00,mfh,76.98
2023-09-19T12:28:00,mfh,76.77
2023-09-19T12:29:00,mfh,75.55
2023-09-19T12:30:00,mfh,73.07
2023-09-19T12:31:00,mfh,69.49
2023-09-19T12:32:00,mfh,69.77
2023-09-19T12:33:00,mfh,69.04
2023-09-19T12:34:00,mfh,65.13
2023-09-19T12:35:00,mfh,65.41
2023-09-19T12:36:00,mfh,64.80
2023-09-19T12:37:00,mfh,64.54
2023-09-19T12:38:00,mfh,65.48
2023-09-19T12:39:00,mfh,65.40
2023-09-19T12:40:00,mfh,69.41
2023-09-19T12:41:00,mfh,69.87
2023-09-19T12:42:00,mfh,69.43
2023-09-19T12:43:00,mfh,68.65
2023-09-19T12:44:00,mfh,67.98
2023-09-19T12:45:00,mfh,67.80
2023-09-19T12:46:00,mfh,72.08
2023-09-19T12:47:00,mfh,72.03
2023-09-19T12:48:00,mfh,73.13
2023-09-19T12:49:00,mfh,73.16
2023-09-19T12:50:00,mfh,72.97
2023-09-19T12:51:00,mfh,72.99
2023-09-19T12:52:00,mfh,73.24
2023-09-19T12:53:00,mfh,72.95
2023-09-19T12:54:00,mfh,73.51
2023-09-19T12:55:00,mfh,73.42
2023-09-19T12:56:00,mfh,73.79
2023-09-19T12:57:00,mfh,75.19
2023-09-19T12:58:00,mfh,74.32
2023-09-19T12:59:00,mfh,73.43
2023-09-19T13:00:00,mfh,74.61
2023-09-19T13:01:00,mfh,74.41
2023-09-19T13:02:00,mfh,74.00
2023-09-19T13:03:00,mfh,73.49
2023-09-19T13:04:00,mfh,73.65
2023-09-19T13:05:00,mfh,74.32
2023-09-19T13:06:00,mfh,74.41
2023-09-19T13:07:00,mfh,74.50
2023-09-19T13:08:00,mfh,74.00
2023-09-19T13:09:00,mfh,70.56
2023-09-19T13:10:00,mfh,69.97
2023-09-19T13:11:00,mfh,70.85
2023-09-19T13:12:00,mfh,70.12
2023-09-19T13:13:00,mfh,69.98
2023-09-19T13:14:00,mfh,70.06
2023-09-19T13:15:00,mfh,69.92
2023-09-19T13:16:00,mfh,70.22
2023-09-19T13:17:00,mfh,70.45
2023-09-19T13:18:00,mfh,69.99